START_TIME,STEP,MOV.,M29,t_acc.,H22,t_acc.,H26,t_acc.,H30,t_acc.
1980-11-16 00:00:20.500 ,3,0,0.,24.0,0.,24.0,0.,24.0,0.,24.0
1980-11-16 00:00:44.500 ,4,1,0.,24.0,0.,24.0,0.,24.0,0.,24.0
1980-11-16 00:01:08.500 ,4,0,0.,24.0,0.,24.0,0.,24.0,0.,24.0
1980-11-16 00:01:32.500 ,5,1,0.,24.0,0.,24.0,0.,24.0,0.,24.0
1980-11-16 00:01:56.500 ,5,0,0.,24.0,0.,24.0,0.,24.0,0.,24.0
1980-11-16 00:02:20.500 ,6,1,0.,24.0,0.,24.0,0.,24.0,0.,24.0
1980-11-16 00:02:44.500 ,6,0,0.,24.0,0.,24.0,0.,24.0,0.,24.0
1980-11-16 00:03:08.500 ,7,1,0.,24.0,0.,24.0,0.,24.0,0.,24.0
1980-11-16 00:03:32.500 ,7,0,0.,24.0,0.,24.0,0.,24.0,0.,24.0
1980-11-16 00:03:56.500 ,7,1,0.,24.0,0.,24.0,0.,24.0,0.,24.0
1980-11-16 00:04:20.500 ,7,0,0.,24.0,0.,24.0,0.,24.0,0.,24.0
1980-11-16 00:04:44.500 ,6,1,0.,24.0,0.,24.0,0.,24.0,0.,24.0
1980-11-16 00:05:08.500 ,6,0,0.,24.0,0.,24.0,0.,24.0,0.,24.0
1980-11-16 00:05:32.500 ,5,1,0.,24.0,0.,24.0,0.,24.0,0.,24.0
1980-11-16 00:05:56.500 ,5,0,0.,24.0,0.,24.0,0.,24.0,0.,24.0
1980-11-16 00:06:20.500 ,0,0,0.,24.0,0.,24.0,0.,24.0,0.,24.0
1980-11-16 00:07:08.500 ,3,1,0.,24.0,0.,24.0,0.,24.0,0.,24.0
1980-11-16 00:07:32.500 ,3,0,0.,24.0,0.,24.0,0.,24.0,0.,24.0
1980-11-16 00:07:56.500 ,2,1,0.,24.0,0.,24.0,0.,24.0,0.,24.0
1980-11-16 00:08:20.500 ,2,0,0.,24.0,0.,24.0,0.,24.0,0.,24.0
1980-11-16 00:08:44.500 ,1,1,0.,24.0,0.,24.0,0.,24.0,0.,24.0
1980-11-16 00:09:08.500 ,1,0,0.,24.0,0.,24.0,0.,24.0,0.,24.0
1980-11-16 00:09:32.500 ,0,1,0.,24.0,0.,24.0,0.,24.0,0.,24.0
1980-11-16 00:09:56.500 ,0,0,0.,24.0,0.,24.0,0.,24.0,0.,24.0
1980-11-16 00:10:20.500 ,0,1,0.,24.0,0.,24.0,0.,24.0,0.,24.0
1980-11-16 00:10:44.500 ,0,0,0.,24.0,0.,24.0,0.,24.0,0.,24.0
1980-11-16 00:11:08.500 ,1,1,0.,24.0,0.,24.0,0.,24.0,0.,24.0
1980-11-16 00:11:32.500 ,1,0,0.,24.0,0.,24.0,0.,24.0,0.,24.0
1980-11-16 00:11:56.500 ,2,1,0.,24.0,0.,24.0,0.,24.0,0.,24.0
1980-11-16 00:12:20.500 ,2,0,0.,24.0,0.,24.0,0.,24.0,0.,24.0
1980-11-16 00:12:44.500 ,3,1,0.,24.0,0.,24.0,0.,24.0,0.,24.0
1980-11-16 00:13:08.500 ,3,0,0.,24.0,0.,24.0,0.,24.0,0.,24.0
1980-11-16 00:13:32.500 ,4,1,0.,24.0,0.,24.0,0.,24.0,0.,24.0
1980-11-16 00:13:56.500 ,4,0,0.,24.0,0.,24.0,0.,24.0,0.,24.0
1980-11-16 00:14:20.500 ,5,1,0.,24.0,0.,24.0,0.,24.0,0.,24.0
1980-11-16 00:14:44.500 ,5,0,0.,24.0,0.,24.0,0.,24.0,0.,24.0
1980-11-16 00:15:08.500 ,6,1,0.,24.0,0.,24.0,0.,24.0,0.,24.0
1980-11-16 00:15:32.500 ,6,0,0.,24.0,0.,24.0,0.,24.0,0.,24.0
1980-11-16 00:15:56.500 ,7,1,0.,24.0,0.,24.0,0.,24.0,0.,24.0
1980-11-16 00:16:20.500 ,7,0,0.,24.0,0.,24.0,0.,24.0,0.,24.0
1980-11-16 00:16:44.500 ,7,1,0.,24.0,0.,24.0,0.,24.0,0.,24.0
1980-11-16 00:17:08.500 ,7,0,0.,24.0,0.,24.0,0.,24.0,0.,24.0
1980-11-16 00:17:32.500 ,6,1,0.,24.0,0.,24.0,0.,24.0,0.,24.0
1980-11-16 00:17:56.500 ,6,0,0.,24.0,0.,24.0,0.,24.0,0.,24.0
1980-11-16 00:18:20.500 ,5,1,0.,24.0,0.,24.0,0.,24.0,0.,24.0
1980-11-16 00:18:44.500 ,5,0,0.,24.0,0.,24.0,0.,24.0,0.,24.0
1980-11-16 00:19:08.500 ,4,1,0.,24.0,0.,24.0,0.,24.0,0.,24.0
1980-11-16 00:19:32.500 ,4,0,0.,24.0,0.,24.0,0.,24.0,0.,24.0
1980-11-16 00:19:56.500 ,3,1,0.,24.0,0.,24.0,0.,24.0,0.,24.0
1980-11-16 00:20:20.500 ,3,0,0.,24.0,0.,24.0,0.,24.0,0.,24.0
1980-11-16 00:20:44.500 ,2,1,0.,24.0,0.,24.0,0.,24.0,0.,24.0
1980-11-16 00:21:08.500 ,2,0,0.,24.0,0.,24.0,0.,24.0,0.,24.0
1980-11-16 00:21:32.500 ,1,1,0.,24.0,0.,24.0,0.,24.0,0.,24.0
1980-11-16 00:21:56.500 ,1,0,0.,24.0,0.,24.0,0.,24.0,0.,24.0
1980-11-16 00:22:20.500 ,0,1,0.,24.0,0.,24.0,0.,24.0,0.,24.0
1980-11-16 00:22:44.500 ,0,0,0.,24.0,0.,24.0,0.,24.0,0.,24.0
1980-11-16 00:23:08.500 ,0,1,1.,24.0,0.,24.0,0.,24.0,0.,24.0
1980-11-16 00:23:32.500 ,0,0,0.,24.0,0.,24.0,0.,24.0,0.,24.0
1980-11-16 00:23:56.500 ,1,1,0.,24.0,0.,24.0,0.,24.0,0.,24.0
1980-11-16 00:24:20.500 ,1,0,0.,24.0,0.,24.0,0.,24.0,0.,24.0
1980-11-16 00:24:44.500 ,2,1,0.,24.0,0.,24.0,0.,24.0,0.,24.0
1980-11-16 00:25:08.500 ,2,0,0.,24.0,0.,24.0,0.,24.0,0.,24.0
1980-11-16 00:25:32.500 ,3,1,0.,24.0,0.,24.0,0.,24.0,0.,24.0
1980-11-16 00:25:56.500 ,3,0,0.,24.0,0.,24.0,0.,24.0,0.,24.0
1980-11-16 00:26:20.500 ,4,1,0.,24.0,0.,24.0,0.,24.0,0.,24.0
1980-11-16 00:26:44.500 ,4,0,0.,24.0,0.,24.0,0.,24.0,0.,24.0
1980-11-16 00:27:08.500 ,5,1,0.,24.0,0.,24.0,0.,24.0,0.,24.0
1980-11-16 00:27:32.500 ,5,0,0.,24.0,0.,24.0,0.,24.0,0.,24.0
1980-11-16 00:27:56.500 ,6,1,0.,24.0,0.,24.0,0.,24.0,0.,24.0
1980-11-16 00:28:20.500 ,6,0,0.,24.0,0.,24.0,0.,24.0,0.,24.0
1980-11-16 00:28:44.500 ,7,1,0.,24.0,0.,24.0,0.,24.0,0.,24.0
1980-11-16 00:29:08.500 ,7,0,0.,24.0,0.,24.0,0.,24.0,0.,24.0
1980-11-16 00:29:32.500 ,7,1,0.,24.0,0.,24.0,0.,24.0,0.,24.0
1980-11-16 00:29:56.500 ,7,0,0.,24.0,0.,24.0,0.,24.0,0.,24.0
1980-11-16 00:30:20.500 ,6,1,0.,24.0,0.,24.0,0.,24.0,0.,24.0
1980-11-16 00:30:44.500 ,6,0,0.,24.0,0.,24.0,0.,24.0,0.,24.0
1980-11-16 00:31:08.500 ,5,1,0.,24.0,0.,24.0,0.,24.0,0.,24.0
1980-11-16 00:31:32.500 ,5,0,0.,24.0,0.,24.0,0.,24.0,0.,24.0
1980-11-16 00:31:56.500 ,4,1,0.,24.0,0.,24.0,0.,24.0,0.,24.0
1980-11-16 00:32:20.500 ,4,0,0.,24.0,0.,24.0,0.,24.0,0.,24.0
1980-11-16 00:32:44.500 ,3,1,0.,24.0,0.,24.0,0.,24.0,0.,24.0
1980-11-16 00:33:08.500 ,3,0,0.,24.0,0.,24.0,0.,24.0,0.,24.0
1980-11-16 00:33:32.500 ,2,1,0.,24.0,0.,24.0,0.,24.0,0.,24.0
1980-11-16 00:33:56.500 ,2,0,0.,24.0,0.,24.0,0.,24.0,0.,24.0
1980-11-16 00:34:20.500 ,1,1,0.,24.0,0.,24.0,0.,24.0,0.,24.0
1980-11-16 00:34:44.500 ,1,0,0.,24.0,0.,24.0,0.,24.0,0.,24.0
1980-11-16 00:35:08.500 ,0,1,0.,24.0,0.,24.0,0.,24.0,0.,24.0
1980-11-16 00:35:32.500 ,0,0,0.,24.0,0.,24.0,0.,24.0,0.,24.0
1980-11-16 00:35:56.500 ,0,1,0.,24.0,0.,24.0,0.,24.0,0.,24.0
1980-11-16 00:36:20.500 ,0,0,0.,24.0,0.,24.0,0.,24.0,0.,24.0
1980-11-16 00:36:44.500 ,1,1,0.,24.0,0.,24.0,0.,24.0,0.,24.0
1980-11-16 00:37:08.500 ,1,0,1.,24.0,0.,24.0,0.,24.0,0.,24.0
1980-11-16 00:37:32.500 ,2,1,0.,24.0,0.,24.0,0.,24.0,0.,24.0
1980-11-16 00:37:56.500 ,2,0,0.,24.0,0.,24.0,0.,24.0,0.,24.0
1980-11-16 00:38:20.500 ,3,1,0.,24.0,0.,24.0,0.,24.0,0.,24.0
1980-11-16 00:38:44.500 ,0,0,0.,24.0,0.,24.0,0.,24.0,0.,24.0
1980-11-16 00:39:08.500 ,4,1,0.,24.0,0.,24.0,0.,24.0,0.,24.0
1980-11-16 00:39:32.500 ,4,0,0.,24.0,0.,24.0,0.,24.0,0.,24.0
1980-11-16 00:39:56.500 ,5,1,0.,24.0,0.,24.0,0.,24.0,0.,24.0
1980-11-16 00:40:20.500 ,5,0,0.,24.0,0.,24.0,0.,24.0,0.,24.0
1980-11-16 00:40:44.500 ,6,1,0.,24.0,0.,24.0,0.,24.0,0.,24.0
1980-11-16 00:41:08.500 ,6,0,0.,24.0,0.,24.0,0.,24.0,0.,24.0
1980-11-16 00:41:32.500 ,7,1,0.,24.0,0.,24.0,0.,24.0,0.,24.0
1980-11-16 00:41:56.500 ,7,0,0.,24.0,0.,24.0,0.,24.0,0.,24.0
1980-11-16 00:42:20.500 ,7,1,0.,24.0,0.,24.0,0.,24.0,0.,24.0
1980-11-16 00:42:44.500 ,7,0,0.,24.0,0.,24.0,0.,24.0,0.,24.0
1980-11-16 00:43:08.500 ,6,1,0.,24.0,0.,24.0,0.,24.0,0.,24.0
1980-11-16 00:43:32.500 ,6,0,0.,24.0,0.,24.0,0.,24.0,0.,24.0
1980-11-16 00:43:56.500 ,5,1,0.,24.0,0.,24.0,0.,24.0,0.,24.0
1980-11-16 00:44:20.500 ,5,0,0.,24.0,0.,24.0,0.,24.0,0.,24.0
1980-11-16 00:44:44.500 ,4,0,,0,,0,,0,,0
1980-11-16 00:45:08.500 ,4,0,0.,24.0,0.,24.0,0.,24.0,0.,24.0
1980-11-16 00:45:32.500 ,3,1,0.,24.0,0.,24.0,0.,24.0,0.,24.0
1980-11-16 00:45:56.500 ,0,0,0.,24.0,0.,24.0,0.,24.0,0.,24.0
1980-11-16 00:46:36.700 ,0,0,,0,,0,,0,,0
1980-11-16 00:46:44.500 ,0,0,0.,24.0,0.,24.0,0.,24.0,0.,24.0
1980-11-16 00:47:08.500 ,1,1,0.,24.0,0.,24.0,0.,24.0,0.,24.0
1980-11-16 00:47:32.500 ,1,0,0.,24.0,0.,24.0,0.,24.0,0.,24.0
1980-11-16 00:47:56.500 ,0,1,0.,24.0,0.,24.0,0.,24.0,0.,24.0
1980-11-16 00:48:20.500 ,0,0,0.,24.0,0.,24.0,0.,24.0,0.,24.0
1980-11-16 00:48:44.500 ,0,1,0.,24.0,0.,24.0,0.,24.0,0.,24.0
1980-11-16 00:49:08.500 ,0,0,0.,24.0,0.,24.0,0.,24.0,0.,24.0
1980-11-16 00:49:32.500 ,1,1,0.,24.0,0.,24.0,0.,24.0,0.,24.0
1980-11-16 00:49:56.500 ,1,0,0.,24.0,0.,24.0,0.,24.0,0.,24.0
1980-11-16 00:50:20.500 ,2,1,0.,24.0,0.,24.0,0.,24.0,0.,24.0
1980-11-16 00:50:44.500 ,2,0,0.,24.0,0.,24.0,0.,24.0,0.,24.0
1980-11-16 00:51:08.500 ,3,1,0.,24.0,0.,24.0,0.,24.0,0.,24.0
1980-11-16 00:51:32.500 ,3,0,0.,24.0,0.,24.0,0.,24.0,0.,24.0
1980-11-16 00:51:56.500 ,4,1,0.,24.0,0.,24.0,0.,24.0,0.,24.0
1980-11-16 00:52:20.500 ,4,0,0.,24.0,0.,24.0,0.,24.0,0.,24.0
1980-11-16 00:52:44.500 ,5,1,0.,24.0,0.,24.0,0.,24.0,0.,24.0
1980-11-16 00:53:08.500 ,5,0,0.,24.0,0.,24.0,0.,24.0,0.,24.0
1980-11-16 00:53:32.500 ,6,1,0.,24.0,0.,24.0,0.,24.0,0.,24.0
1980-11-16 00:53:56.500 ,6,0,0.,24.0,0.,24.0,0.,24.0,0.,24.0
1980-11-16 00:54:20.500 ,7,1,0.,24.0,0.,24.0,0.,24.0,0.,24.0
1980-11-16 00:54:44.500 ,7,0,0.,24.0,0.,24.0,0.,24.0,0.,24.0
1980-11-16 00:55:08.500 ,7,1,0.,24.0,0.,24.0,0.,24.0,0.,24.0
1980-11-16 00:55:32.500 ,7,0,0.,24.0,0.,24.0,0.,24.0,0.,24.0
1980-11-16 00:55:56.500 ,6,1,0.,24.0,0.,24.0,0.,24.0,0.,24.0
1980-11-16 00:56:20.500 ,0,0,0.,24.0,0.,24.0,0.,24.0,0.,24.0
1980-11-16 00:59:14.500 ,0,0,0.,24.0,0.,24.0,0.,24.0,0.,24.0
1980-11-16 00:59:32.500 ,0,0,0.,24.0,0.,24.0,0.,24.0,0.,24.0
1980-11-16 00:59:56.500 ,1,1,0.,24.0,0.,24.0,0.,24.0,0.,24.0
1980-11-16 01:00:20.500 ,1,0,0.,24.0,0.,24.0,0.,24.0,0.,24.0
1980-11-16 01:00:44.500 ,0,1,0.,24.0,0.,24.0,0.,24.0,0.,24.0
1980-11-16 01:01:08.500 ,0,0,0.,24.0,0.,24.0,0.,24.0,0.,24.0
1980-11-16 01:01:32.500 ,0,1,0.,24.0,0.,24.0,0.,24.0,0.,24.0
1980-11-16 01:01:56.500 ,0,0,0.,24.0,0.,24.0,0.,24.0,0.,24.0
1980-11-16 01:02:20.500 ,1,1,0.,24.0,0.,24.0,0.,24.0,0.,24.0
1980-11-16 01:02:44.500 ,1,0,0.,24.0,0.,24.0,0.,24.0,0.,24.0
1980-11-16 01:03:08.500 ,2,1,0.,24.0,0.,24.0,0.,24.0,0.,24.0
1980-11-16 01:03:32.500 ,2,0,0.,24.0,0.,24.0,0.,24.0,0.,24.0
1980-11-16 01:03:56.500 ,3,1,0.,24.0,0.,24.0,0.,24.0,0.,24.0
1980-11-16 01:04:20.500 ,3,0,0.,24.0,0.,24.0,0.,24.0,0.,24.0
1980-11-16 01:04:44.500 ,4,1,0.,24.0,0.,24.0,0.,24.0,0.,24.0
1980-11-16 01:05:08.500 ,4,0,0.,24.0,0.,24.0,0.,24.0,0.,24.0
1980-11-16 01:05:32.500 ,5,1,0.,24.0,0.,24.0,0.,24.0,0.,24.0
1980-11-16 01:05:56.500 ,5,0,0.,24.0,0.,24.0,0.,24.0,0.,24.0
1980-11-16 01:06:20.500 ,6,1,0.,24.0,0.,24.0,0.,24.0,0.,24.0
1980-11-16 01:06:44.500 ,6,0,0.,24.0,0.,24.0,0.,24.0,0.,24.0
1980-11-16 01:07:08.500 ,7,1,0.,24.0,0.,24.0,0.,24.0,0.,24.0
1980-11-16 01:07:32.500 ,7,0,0.,24.0,0.,24.0,0.,24.0,0.,24.0
1980-11-16 01:07:56.500 ,7,1,0.,24.0,0.,24.0,0.,24.0,0.,24.0
1980-11-16 01:08:20.500 ,7,0,0.,24.0,0.,24.0,0.,24.0,0.,24.0
1980-11-16 01:08:44.500 ,6,1,0.,24.0,0.,24.0,0.,24.0,0.,24.0
1980-11-16 01:09:08.500 ,6,0,0.,24.0,0.,24.0,0.,24.0,0.,24.0
1980-11-16 01:09:32.500 ,5,1,0.,24.0,0.,24.0,0.,24.0,0.,24.0
1980-11-16 01:09:56.500 ,5,0,0.,24.0,0.,24.0,0.,24.0,0.,24.0
1980-11-16 01:10:20.500 ,4,1,0.,24.0,0.,24.0,0.,24.0,0.,24.0
1980-11-16 01:10:44.500 ,4,0,0.,24.0,0.,24.0,0.,24.0,0.,24.0
1980-11-16 01:11:08.500 ,3,1,0.,24.0,0.,24.0,0.,24.0,0.,24.0
1980-11-16 01:11:32.500 ,3,0,0.,24.0,0.,24.0,0.,24.0,0.,24.0
1980-11-16 01:11:56.500 ,2,1,0.,24.0,0.,24.0,0.,24.0,0.,24.0
1980-11-16 01:12:20.500 ,2,0,0.,24.0,0.,24.0,0.,24.0,0.,24.0
1980-11-16 01:12:44.500 ,1,1,0.,24.0,0.,24.0,0.,24.0,0.,24.0
1980-11-16 01:13:08.500 ,1,0,0.,24.0,0.,24.0,0.,24.0,0.,24.0
1980-11-16 01:13:32.500 ,0,1,0.,24.0,0.,24.0,0.,24.0,0.,24.0
1980-11-16 01:13:56.500 ,0,0,0.,24.0,0.,24.0,0.,24.0,0.,24.0
1980-11-16 01:14:20.500 ,0,1,0.,24.0,0.,24.0,0.,24.0,0.,24.0
1980-11-16 01:14:44.500 ,0,0,0.,24.0,0.,24.0,0.,24.0,0.,24.0
1980-11-16 01:15:08.500 ,1,1,0.,24.0,0.,24.0,0.,24.0,0.,24.0
1980-11-16 01:15:32.500 ,1,0,0.,24.0,0.,24.0,0.,24.0,0.,24.0
1980-11-16 01:15:56.500 ,2,1,0.,24.0,0.,24.0,0.,24.0,0.,24.0
1980-11-16 01:16:20.500 ,2,0,0.,24.0,0.,24.0,0.,24.0,0.,24.0
1980-11-16 01:16:44.500 ,3,1,0.,24.0,0.,24.0,0.,24.0,0.,24.0
1980-11-16 01:17:08.500 ,3,0,0.,24.0,0.,24.0,0.,24.0,0.,24.0
1980-11-16 01:17:32.500 ,4,1,0.,24.0,0.,24.0,0.,24.0,0.,24.0
1980-11-16 01:17:56.500 ,4,0,0.,24.0,0.,24.0,0.,24.0,0.,24.0
1980-11-16 01:18:20.500 ,5,1,0.,24.0,0.,24.0,0.,24.0,0.,24.0
1980-11-16 01:18:44.500 ,5,0,0.,24.0,0.,24.0,0.,24.0,0.,24.0
1980-11-16 01:19:08.500 ,6,1,0.,24.0,0.,24.0,0.,24.0,0.,24.0
1980-11-16 01:19:32.500 ,6,0,0.,24.0,0.,24.0,0.,24.0,0.,24.0
1980-11-16 01:19:56.500 ,7,1,0.,24.0,0.,24.0,0.,24.0,0.,24.0
1980-11-16 01:20:20.500 ,0,0,0.,24.0,0.,24.0,0.,24.0,0.,24.0
1980-11-16 01:21:19.900 ,0,0,,0,,0,,0,,0
1980-11-16 01:21:32.500 ,6,1,0.,24.0,0.,24.0,0.,24.0,0.,24.0
1980-11-16 01:21:56.500 ,6,0,0.,24.0,0.,24.0,0.,24.0,0.,24.0
1980-11-16 01:22:20.500 ,5,1,0.,24.0,0.,24.0,0.,24.0,0.,24.0
1980-11-16 01:22:44.500 ,5,0,0.,24.0,0.,24.0,0.,24.0,0.,24.0
1980-11-16 01:23:08.500 ,4,1,0.,24.0,0.,24.0,0.,24.0,0.,24.0
1980-11-16 01:23:32.500 ,4,0,0.,24.0,0.,24.0,0.,24.0,0.,24.0
1980-11-16 01:23:56.500 ,3,1,0.,24.0,0.,24.0,0.,24.0,0.,24.0
1980-11-16 01:24:20.500 ,3,0,0.,24.0,0.,24.0,0.,24.0,0.,24.0
1980-11-16 01:24:44.500 ,2,1,0.,24.0,0.,24.0,0.,24.0,0.,24.0
1980-11-16 01:25:08.500 ,2,0,0.,24.0,0.,24.0,0.,24.0,0.,24.0
1980-11-16 01:25:32.500 ,1,1,0.,24.0,0.,24.0,0.,24.0,0.,24.0
1980-11-16 01:25:56.500 ,1,0,0.,24.0,0.,24.0,0.,24.0,0.,24.0
1980-11-16 01:26:20.500 ,0,1,0.,24.0,0.,24.0,0.,24.0,0.,24.0
1980-11-16 01:26:44.500 ,0,0,0.,24.0,0.,24.0,0.,24.0,0.,24.0
1980-11-16 01:27:08.500 ,0,1,0.,24.0,0.,24.0,0.,24.0,0.,24.0
1980-11-16 01:27:32.500 ,0,0,0.,24.0,0.,24.0,0.,24.0,0.,24.0
1980-11-16 01:27:56.500 ,1,1,0.,24.0,0.,24.0,0.,24.0,0.,24.0
1980-11-16 01:28:20.500 ,1,0,0.,24.0,0.,24.0,0.,24.0,0.,24.0
1980-11-16 01:28:44.500 ,2,1,0.,24.0,0.,24.0,0.,24.0,0.,24.0
1980-11-16 01:29:08.500 ,2,0,0.,24.0,0.,24.0,0.,24.0,0.,24.0
1980-11-16 01:29:32.500 ,3,1,0.,24.0,0.,24.0,0.,24.0,0.,24.0
1980-11-16 01:29:56.500 ,3,0,0.,24.0,0.,24.0,0.,24.0,0.,24.0
1980-11-16 01:30:20.500 ,4,1,0.,24.0,0.,24.0,0.,24.0,0.,24.0
1980-11-16 01:30:44.500 ,4,0,0.,24.0,0.,24.0,0.,24.0,0.,24.0
1980-11-16 01:31:08.500 ,5,1,0.,24.0,0.,24.0,0.,24.0,0.,24.0
1980-11-16 01:31:32.500 ,5,0,0.,24.0,0.,24.0,0.,24.0,0.,24.0
1980-11-16 01:31:56.500 ,6,1,0.,24.0,0.,24.0,0.,24.0,0.,24.0
1980-11-16 01:32:20.500 ,6,0,0.,24.0,0.,24.0,0.,24.0,0.,24.0
1980-11-16 01:32:44.500 ,7,1,0.,24.0,0.,24.0,0.,24.0,0.,24.0
1980-11-16 01:33:08.500 ,7,0,0.,24.0,0.,24.0,0.,24.0,0.,24.0
1980-11-16 01:33:32.500 ,7,1,0.,24.0,0.,24.0,0.,24.0,0.,24.0
1980-11-16 01:33:56.500 ,7,0,0.,24.0,0.,24.0,0.,24.0,0.,24.0
1980-11-16 01:34:20.500 ,6,1,0.,24.0,0.,24.0,0.,24.0,0.,24.0
1980-11-16 01:34:44.500 ,6,0,0.,24.0,0.,24.0,0.,24.0,0.,24.0
1980-11-16 01:35:08.500 ,5,1,0.,24.0,0.,24.0,0.,24.0,0.,24.0
1980-11-16 01:35:32.500 ,5,0,0.,24.0,0.,24.0,0.,24.0,0.,24.0
1980-11-16 01:35:56.500 ,4,1,0.,24.0,0.,24.0,0.,24.0,0.,24.0
1980-11-16 01:36:20.500 ,4,0,0.,24.0,0.,24.0,0.,24.0,0.,24.0
1980-11-16 01:36:44.500 ,3,1,0.,24.0,0.,24.0,0.,24.0,0.,24.0
1980-11-16 01:37:08.500 ,3,0,0.,24.0,0.,24.0,0.,24.0,0.,24.0
1980-11-16 01:37:32.500 ,2,1,0.,24.0,0.,24.0,0.,24.0,0.,24.0
1980-11-16 01:37:56.500 ,2,0,0.,24.0,0.,24.0,0.,24.0,0.,24.0
1980-11-16 01:38:20.500 ,1,1,0.,24.0,0.,24.0,0.,24.0,0.,24.0
1980-11-16 01:38:44.500 ,1,0,0.,24.0,0.,24.0,0.,24.0,0.,24.0
1980-11-16 01:39:08.500 ,0,1,0.,24.0,0.,24.0,0.,24.0,0.,24.0
1980-11-16 01:39:32.500 ,0,0,0.,24.0,0.,24.0,0.,24.0,0.,24.0
1980-11-16 01:39:56.500 ,0,1,0.,24.0,0.,24.0,0.,24.0,0.,24.0
1980-11-16 01:40:20.500 ,0,0,0.,24.0,0.,24.0,0.,24.0,0.,24.0
1980-11-16 01:40:44.500 ,1,1,0.,24.0,0.,24.0,0.,24.0,0.,24.0
1980-11-16 01:41:08.500 ,1,0,0.,24.0,0.,24.0,0.,24.0,0.,24.0
1980-11-16 01:41:32.500 ,2,1,0.,24.0,0.,24.0,0.,24.0,0.,24.0
1980-11-16 01:41:56.500 ,2,0,0.,24.0,0.,24.0,0.,24.0,0.,24.0
1980-11-16 01:42:20.500 ,3,1,0.,24.0,0.,24.0,0.,24.0,0.,24.0
1980-11-16 01:42:44.500 ,3,0,0.,24.0,0.,24.0,0.,24.0,0.,24.0
1980-11-16 01:43:08.500 ,4,1,0.,24.0,0.,24.0,0.,24.0,0.,24.0
1980-11-16 01:43:32.500 ,4,0,0.,24.0,0.,24.0,0.,24.0,0.,24.0
1980-11-16 01:43:56.500 ,5,1,0.,24.0,0.,24.0,0.,24.0,0.,24.0
1980-11-16 01:44:20.500 ,5,0,0.,24.0,0.,24.0,0.,24.0,0.,24.0
1980-11-16 01:44:44.500 ,6,1,0.,24.0,0.,24.0,0.,24.0,0.,24.0
1980-11-16 01:45:08.500 ,6,0,0.,24.0,0.,24.0,0.,24.0,0.,24.0
1980-11-16 01:45:32.500 ,7,1,0.,24.0,0.,24.0,0.,24.0,0.,24.0
1980-11-16 01:45:56.500 ,7,0,0.,24.0,0.,24.0,0.,24.0,0.,24.0
1980-11-16 01:46:20.500 ,7,1,0.,24.0,0.,24.0,0.,24.0,0.,24.0
1980-11-16 01:46:44.500 ,7,0,0.,24.0,0.,24.0,0.,24.0,0.,24.0
1980-11-16 01:47:08.500 ,6,1,0.,24.0,0.,24.0,0.,24.0,0.,24.0
1980-11-16 01:47:32.500 ,6,0,0.,24.0,0.,24.0,0.,24.0,0.,24.0
1980-11-16 01:47:56.500 ,5,1,0.,24.0,0.,24.0,0.,24.0,0.,24.0
1980-11-16 01:48:20.500 ,5,0,0.,24.0,0.,24.0,0.,24.0,0.,24.0
1980-11-16 01:48:44.500 ,4,1,0.,24.0,0.,24.0,0.,24.0,0.,24.0
1980-11-16 01:49:08.500 ,4,0,0.,24.0,0.,24.0,0.,24.0,0.,24.0
1980-11-16 01:49:32.500 ,3,1,0.,24.0,0.,24.0,0.,24.0,0.,24.0
1980-11-16 01:49:56.500 ,3,0,0.,24.0,0.,24.0,0.,24.0,0.,24.0
1980-11-16 01:50:20.500 ,2,1,0.,24.0,0.,24.0,0.,24.0,0.,24.0
1980-11-16 01:50:44.500 ,2,0,0.,24.0,0.,24.0,0.,24.0,0.,24.0
1980-11-16 01:51:08.500 ,1,1,0.,24.0,0.,24.0,0.,24.0,0.,24.0
1980-11-16 01:51:32.500 ,1,0,0.,24.0,0.,24.0,0.,24.0,0.,24.0
1980-11-16 01:51:56.500 ,0,1,0.,24.0,0.,24.0,0.,24.0,0.,24.0
1980-11-16 01:52:20.500 ,0,0,0.,24.0,0.,24.0,0.,24.0,0.,24.0
1980-11-16 01:52:44.500 ,0,1,0.,24.0,0.,24.0,0.,24.0,0.,24.0
1980-11-16 01:53:08.500 ,0,0,0.,24.0,0.,24.0,0.,24.0,0.,24.0
1980-11-16 01:53:32.500 ,1,1,0.,24.0,0.,24.0,0.,24.0,0.,24.0
1980-11-16 01:53:56.500 ,1,0,0.,24.0,0.,24.0,0.,24.0,0.,24.0
1980-11-16 01:54:20.500 ,2,1,0.,24.0,0.,24.0,0.,24.0,0.,24.0
1980-11-16 01:54:44.500 ,2,0,0.,24.0,0.,24.0,0.,24.0,0.,24.0
1980-11-16 01:55:08.500 ,3,1,0.,24.0,0.,24.0,0.,24.0,0.,24.0
1980-11-16 01:55:32.500 ,3,0,0.,24.0,0.,24.0,0.,24.0,0.,24.0
1980-11-16 01:55:56.500 ,4,1,0.,24.0,0.,24.0,0.,24.0,0.,24.0
1980-11-16 01:56:20.500 ,4,0,0.,24.0,0.,24.0,0.,24.0,0.,24.0
1980-11-16 01:56:44.500 ,5,1,0.,24.0,0.,24.0,0.,24.0,0.,24.0
1980-11-16 01:57:08.500 ,5,0,0.,24.0,0.,24.0,0.,24.0,0.,24.0
1980-11-16 01:57:32.500 ,6,0,,0,,0,,0,,0
1980-11-16 01:57:56.500 ,6,0,0.,24.0,0.,24.0,0.,24.0,0.,24.0
1980-11-16 01:58:20.500 ,7,1,0.,24.0,0.,24.0,0.,24.0,0.,24.0
1980-11-16 01:58:44.500 ,7,0,0.,24.0,0.,24.0,0.,24.0,0.,24.0
1980-11-16 01:59:08.500 ,7,1,0.,24.0,0.,24.0,0.,24.0,0.,24.0
1980-11-16 01:59:32.500 ,7,0,0.,24.0,0.,24.0,0.,24.0,0.,24.0
1980-11-16 01:59:56.500 ,6,1,0.,24.0,0.,24.0,0.,24.0,0.,24.0
1980-11-16 02:00:20.500 ,6,0,0.,24.0,0.,24.0,0.,24.0,0.,24.0
1980-11-16 02:00:44.500 ,5,1,0.,24.0,0.,24.0,0.,24.0,0.,24.0
1980-11-16 02:01:08.500 ,5,0,0.,24.0,0.,24.0,0.,24.0,0.,24.0
1980-11-16 02:01:32.500 ,4,1,0.,24.0,0.,24.0,0.,24.0,0.,24.0
1980-11-16 02:01:56.500 ,4,0,0.,24.0,0.,24.0,0.,24.0,0.,24.0
1980-11-16 02:02:20.500 ,3,1,0.,24.0,0.,24.0,0.,24.0,0.,24.0
1980-11-16 02:02:44.500 ,3,0,0.,24.0,0.,24.0,0.,24.0,0.,24.0
1980-11-16 02:03:08.500 ,2,1,0.,24.0,0.,24.0,0.,24.0,0.,24.0
1980-11-16 02:03:32.500 ,2,0,0.,24.0,0.,24.0,0.,24.0,0.,24.0
1980-11-16 02:03:56.500 ,1,1,0.,24.0,0.,24.0,0.,24.0,0.,24.0
1980-11-16 02:04:20.500 ,1,0,0.,24.0,0.,24.0,0.,24.0,0.,24.0
1980-11-16 02:04:44.500 ,0,1,0.,24.0,0.,24.0,0.,24.0,0.,24.0
1980-11-16 02:05:08.500 ,0,0,0.,24.0,0.,24.0,0.,24.0,0.,24.0
1980-11-16 02:05:32.500 ,0,1,0.,24.0,0.,24.0,0.,24.0,0.,24.0
1980-11-16 02:05:56.500 ,0,0,0.,24.0,0.,24.0,0.,24.0,0.,24.0
1980-11-16 02:06:20.500 ,1,1,0.,24.0,0.,24.0,0.,24.0,0.,24.0
1980-11-16 02:06:44.500 ,1,0,0.,24.0,0.,24.0,0.,24.0,0.,24.0
1980-11-16 02:07:08.500 ,2,1,0.,24.0,0.,24.0,0.,24.0,0.,24.0
1980-11-16 02:07:32.500 ,2,0,0.,24.0,0.,24.0,0.,24.0,0.,24.0
1980-11-16 02:07:56.500 ,3,1,0.,24.0,0.,24.0,0.,24.0,0.,24.0
1980-11-16 02:08:20.500 ,3,0,0.,24.0,0.,24.0,0.,24.0,0.,24.0
1980-11-16 02:08:44.500 ,4,1,0.,24.0,0.,24.0,0.,24.0,0.,24.0
1980-11-16 02:09:08.500 ,4,0,0.,24.0,0.,24.0,0.,24.0,0.,24.0
1980-11-16 02:09:32.500 ,5,1,0.,24.0,0.,24.0,0.,24.0,0.,24.0
1980-11-16 02:09:56.500 ,5,0,0.,24.0,0.,24.0,0.,24.0,0.,24.0
1980-11-16 02:10:20.500 ,6,1,0.,24.0,0.,24.0,0.,24.0,0.,24.0
1980-11-16 02:10:44.500 ,6,0,0.,24.0,0.,24.0,0.,24.0,0.,24.0
1980-11-16 02:11:08.500 ,7,1,0.,24.0,0.,24.0,0.,24.0,0.,24.0
1980-11-16 02:11:32.500 ,7,0,0.,24.0,0.,24.0,0.,24.0,0.,24.0
1980-11-16 02:11:56.500 ,7,1,0.,24.0,0.,24.0,0.,24.0,0.,24.0
1980-11-16 02:12:20.500 ,7,0,0.,24.0,0.,24.0,0.,24.0,0.,24.0
1980-11-16 02:12:44.500 ,6,1,0.,24.0,0.,24.0,0.,24.0,0.,24.0
1980-11-16 02:13:08.500 ,6,0,0.,24.0,0.,24.0,0.,24.0,0.,24.0
1980-11-16 02:13:32.500 ,5,1,0.,24.0,0.,24.0,0.,24.0,0.,24.0
1980-11-16 02:13:56.500 ,5,0,0.,24.0,0.,24.0,0.,24.0,0.,24.0
1980-11-16 02:14:20.500 ,4,1,0.,24.0,0.,24.0,0.,24.0,0.,24.0
1980-11-16 02:14:44.500 ,4,0,0.,24.0,0.,24.0,0.,24.0,0.,24.0
1980-11-16 02:15:08.500 ,3,1,0.,24.0,0.,24.0,0.,24.0,0.,24.0
1980-11-16 02:15:32.500 ,3,0,0.,24.0,0.,24.0,0.,24.0,0.,24.0
1980-11-16 02:15:56.500 ,2,1,0.,24.0,0.,24.0,0.,24.0,0.,24.0
1980-11-16 02:16:20.500 ,2,0,0.,24.0,0.,24.0,0.,24.0,0.,24.0
1980-11-16 02:16:44.500 ,1,1,0.,24.0,0.,24.0,0.,24.0,0.,24.0
1980-11-16 02:17:08.500 ,1,0,0.,24.0,0.,24.0,0.,24.0,0.,24.0
1980-11-16 02:17:32.500 ,0,1,0.,24.0,0.,24.0,0.,24.0,0.,24.0
1980-11-16 02:17:56.500 ,0,0,1.,24.0,0.,24.0,0.,24.0,0.,24.0
1980-11-16 02:18:20.500 ,0,1,1.,24.0,0.,24.0,0.,24.0,0.,24.0
1980-11-16 02:18:44.500 ,0,0,0.,24.0,0.,24.0,0.,24.0,0.,24.0
1980-11-16 02:19:08.500 ,1,1,0.,24.0,0.,24.0,0.,24.0,0.,24.0
1980-11-16 02:19:32.500 ,1,0,0.,24.0,0.,24.0,0.,24.0,0.,24.0
1980-11-16 02:19:56.500 ,2,1,0.,24.0,0.,24.0,0.,24.0,0.,24.0
1980-11-16 02:20:20.500 ,2,0,0.,24.0,0.,24.0,0.,24.0,0.,24.0
1980-11-16 02:20:44.500 ,3,1,0.,24.0,0.,24.0,0.,24.0,0.,24.0
1980-11-16 02:21:08.500 ,3,0,0.,24.0,0.,24.0,0.,24.0,0.,24.0
1980-11-16 02:21:32.500 ,4,1,1.,24.0,0.,24.0,0.,24.0,0.,24.0
1980-11-16 02:21:56.500 ,4,0,0.,24.0,0.,24.0,0.,24.0,0.,24.0
1980-11-16 02:22:20.500 ,5,1,0.,24.0,0.,24.0,0.,24.0,0.,24.0
1980-11-16 02:22:44.500 ,5,0,0.,24.0,0.,24.0,0.,24.0,0.,24.0
1980-11-16 02:23:08.500 ,6,1,0.,24.0,0.,24.0,0.,24.0,0.,24.0
1980-11-16 02:23:32.500 ,6,0,0.,24.0,0.,24.0,0.,24.0,0.,24.0
1980-11-16 02:23:56.500 ,7,1,0.,24.0,0.,24.0,0.,24.0,0.,24.0
1980-11-16 02:24:20.500 ,7,0,0.,24.0,0.,24.0,0.,24.0,0.,24.0
1980-11-16 02:24:44.500 ,7,1,0.,24.0,0.,24.0,0.,24.0,0.,24.0
1980-11-16 02:25:08.500 ,7,0,0.,24.0,0.,24.0,0.,24.0,0.,24.0
1980-11-16 02:25:32.500 ,6,1,1.,24.0,0.,24.0,0.,24.0,0.,24.0
1980-11-16 02:25:56.500 ,6,0,0.,24.0,0.,24.0,0.,24.0,0.,24.0
1980-11-16 02:26:20.500 ,5,1,0.,24.0,0.,24.0,0.,24.0,0.,24.0
1980-11-16 02:26:44.500 ,5,0,0.,24.0,0.,24.0,0.,24.0,0.,24.0
1980-11-16 02:27:08.500 ,4,1,0.,24.0,0.,24.0,0.,24.0,0.,24.0
1980-11-16 02:27:32.500 ,4,0,1.,24.0,0.,24.0,0.,24.0,0.,24.0
1980-11-16 02:27:56.500 ,3,1,0.,24.0,0.,24.0,0.,24.0,0.,24.0
1980-11-16 02:28:20.500 ,3,0,0.,24.0,0.,24.0,0.,24.0,0.,24.0
1980-11-16 02:28:44.500 ,2,1,0.,24.0,0.,24.0,0.,24.0,0.,24.0
1980-11-16 02:29:08.500 ,2,0,0.,24.0,0.,24.0,0.,24.0,0.,24.0
1980-11-16 02:29:32.500 ,1,1,0.,24.0,0.,24.0,0.,24.0,0.,24.0
1980-11-16 02:29:56.500 ,1,0,0.,24.0,0.,24.0,0.,24.0,0.,24.0
1980-11-16 02:30:20.500 ,0,1,0.,24.0,0.,24.0,0.,24.0,0.,24.0
1980-11-16 02:30:44.500 ,0,0,0.,24.0,0.,24.0,0.,24.0,0.,24.0
1980-11-16 02:31:08.500 ,0,1,0.,24.0,0.,24.0,0.,24.0,0.,24.0
1980-11-16 02:31:32.500 ,0,0,0.,24.0,0.,24.0,0.,24.0,0.,24.0
1980-11-16 02:31:56.500 ,1,1,0.,24.0,0.,24.0,0.,24.0,0.,24.0
1980-11-16 02:32:20.500 ,1,0,0.,24.0,0.,24.0,0.,24.0,0.,24.0
1980-11-16 02:32:44.500 ,0,0,,0,,0,,0,,0
1980-11-16 02:33:08.500 ,0,0,,0,,0,,0,,0
1980-11-16 02:33:32.500 ,0,0,0.,24.0,0.,24.0,0.,24.0,0.,24.0
1980-11-16 02:33:56.500 ,0,0,,0,,0,,0,,0
1980-11-16 02:34:20.500 ,0,0,0.,24.0,0.,24.0,0.,24.0,0.,24.0
1980-11-16 02:34:44.500 ,0,0,,0,,0,,0,,0
1980-11-16 02:34:48.100 ,0,0,0.,24.0,0.,24.0,0.,24.0,0.,24.0
1980-11-16 02:35:08.500 ,5,1,0.,24.0,0.,24.0,0.,24.0,0.,24.0
1980-11-16 02:35:32.500 ,5,0,0.,24.0,0.,24.0,0.,24.0,0.,24.0
1980-11-16 02:35:56.500 ,6,1,0.,24.0,0.,24.0,0.,24.0,0.,24.0
1980-11-16 02:36:20.500 ,6,0,0.,24.0,0.,24.0,0.,24.0,0.,24.0
1980-11-16 02:36:44.500 ,7,1,0.,24.0,0.,24.0,0.,24.0,0.,24.0
1980-11-16 02:37:08.500 ,7,0,0.,24.0,0.,24.0,0.,24.0,0.,24.0
1980-11-16 02:37:32.500 ,7,1,0.,24.0,0.,24.0,0.,24.0,0.,24.0
1980-11-16 02:37:56.500 ,7,0,0.,24.0,0.,24.0,0.,24.0,0.,24.0